Dewpoint
55 58 60 61 61 60 62 65 67 71 73 74 75 74 75 75 74 74 74 73 72 71 71 71 71 70 69 66 67 69 72 71 71
54 58 61 65 59 52 63 65 67 71 73 74 75 75 75 75 75 75 73 74 74 73 71 72 71 69 69 68 70 71 72 72 71
54 55 53 55 53 56 64 64 67 72 73 73 74 74 74 75 74 74 73 74 73 72 69 71 71 72 71 70 71 72 72 73 72
53 57 60 57 61 63 64 67 67 71 72 73 74 74 74 74 74 73 73 73 72 69 70 72 72 72 72 73 73 73 72 72 72
61 61 64 64 67 69 69 70 70 71 72 72 73 73 73 72 71 68 69 69 69 70 69 66 66 67 68 70 72 71 72 71 72
59 68 64 64 65 66 67 69 69 71 71 71 72 71 70 70 68 67 65 66 66 67 68 68 67 67 66 66 68 69 72 72 71
64 64 63 63 64 65 66 66 66 66 66 66 64 63 63 63 64 66 66 66 66 67 68 68 68 68 68 67 67 67 68 68 70
62 59 58 58 60 62 62 61 62 61 62 62 62 62 61 63 65 65 66 65 66 67 66 67 67 67 67 67 67 65 64 65 67
63 63 59 59 59 60 60 60 61 61 61 61 61 60 61 62 62 63 63 64 64 65 65 66 66 66 67 66 65 64 65 66 64
62 62 58 58 59 60 61 61 60 57 59 60 59 59 60 61 62 62 63 64 65 65 65 66 66 66 67 66 66 65 64 66 64
62 62 60 61 56 57 57 57 56 57 57 58 59 60 62 63 63 63 64 64 64 64 64 64 64 64 65 66 66 64 63 64 64
60 61 61 59 56 56 56 56 57 58 58 59 60 61 62 63 64 62 62 61 62 63 63 63 62 62 63 64 64 63 62 63 63
57 55 54 52 53 55 57 58 59 59 59 59 60 60 62 63 63 63 62 62 62 62 61 62 62 62 63 63 63 62 61 61 63
51 52 52 53 56 57 56 56 57 58 58 58 59 61 61 60 61 61 61 61 60 60 60 60 60 60 60 62 63 63 60 59 61
51 53 54 54 55 55 55 55 55 55 56 56 56 57 59 60 60 60 60 59 59 60 60 59 59 59 59 59 62 61 60 59 58
53 53 53 53 52 52 53 53 53 53 53 54 54 55 56 57 58 57 57 56 56 56 55 57 58 58 57 58 59 60 57 56 56
51 51 50 51 51 51 50 51 52 52 52 54 53 52 52 51 51 52 54 53 53 53 54 55 56 57 58 58 58 57 57 58 56
49 49 51 51 51 50 50 50 50 51 53 52 50 49 49 50 50 49 50 51 51 51 52 52 53 54 53 52 52 53 53 54 53
49 50 50 49 49 49 49 50 49 49 49 48 48 49 47 46 46 46 46 47 46 49 49 48 47 46 47 51 50 49 48 45 45
50 48 48 49 49 49 50 49 48 47 48 50 48 46 46 45 45 43 43 43 42 43 44 46 46 45 46 45 46 45 44 43 43
Lifted_Index
-2 -1 -2 -2 -3 -5 -6 -6 -7 -7 -8 -8 -9 -9 -8 -8 -7 -7 -7 -7 -7 -6 -5 -4 -4 -3 -2 -1 -2 -4 -4 -4 -4
-2 -2 -2 -2 -3 -4 -6 -6 -7 -8 -8 -8 -8 -9 -8 -8 -8 -7 -7 -7 -7 -6 -5 -5 -4 -4 -3 -3 -3 -4 -4 -5 -5
-2 -2 -3 -3 -3 -3 -5 -6 -7 -8 -8 -8 -8 -8 -8 -8 -8 -7 -7 -7 -7 -6 -5 -5 -5 -5 -5 -4 -4 -4 -5 -5 -5
-2 -2 -3 -4 -4 -5 -5 -6 -7 -8 -8 -8 -8 -8 -7 -7 -7 -6 -6 -6 -6 -5 -5 -5 -5 -4 -4 -5 -5 -5 -5 -5 -5
-2 -3 -4 -5 -7 -7 -7 -7 -7 -8 -7 -7 -7 -7 -6 -6 -5 -5 -4 -4 -4 -4 -4 -3 -3 -3 -3 -3 -4 -4 -4 -5 -5
-3 -4 -6 -7 -7 -8 -8 -7 -7 -7 -6 -6 -6 -5 -5 -4 -4 -3 -2 -2 -2 -2 -2 -2 -2 -2 -2 -2 -2 -3 -3 -4 -4
-3 -4 -6 -6 -6 -6 -6 -6 -5 -5 -5 -4 -4 -3 -3 -2 -2 -2 -1 -1 -1 -1 -1 -1 -1 -1 -1 -1 -2 -2 -2 -2 -2
-2 -3 -4 -4 -4 -4 -3 -3 -3 -3 -2 -2 -1 -1 -1 -0 -0 -0 -0 -0 -1 -1 -1 -1 -1 -1 -1 -1 -1 -1 -1 -0 -0
-1 -2 -2 -3 -3 -2 -2 -1 -1 -0 0 0 0 0 1 1 1 1 0 0 -0 -0 -0 -0 -0 -1 -1 -1 -1 -1 -0 0 1
-2 -2 -2 -2 -2 -1 -1 0 1 1 1 1 1 1 0 1 1 1 0 -0 -0 -0 0 0 -0 -0 -1 -1 -1 -1 -0 0 1
-2 -3 -2 -2 -1 -0 1 1 2 2 2 1 1 0 -0 -0 0 0 0 -0 -0 0 1 1 1 1 0 -0 -1 -1 -0 0 1
-2 -2 -2 -1 -0 1 1 2 2 2 1 1 1 1 0 0 0 0 1 1 1 1 1 2 2 2 1 1 0 -0 0 0 1
-1 -1 -0 0 1 1 2 2 2 2 2 2 2 1 1 1 1 1 1 1 2 2 2 2 2 2 2 2 1 1 0 1 1
1 1 1 2 2 2 2 2 2 2 2 2 2 2 2 2 2 2 2 3 3 3 3 3 3 3 3 2 2 1 1 1 1
2 2 2 2 2 2 3 3 3 3 3 3 4 4 4 4 4 4 4 4 4 4 4 4 4 3 3 3 2 1 1 1 2
3 3 3 3 3 4 4 5 5 5 5 6 6 6 6 6 6 5 5 5 5 5 5 4 4 4 4 3 3 2 2 2 2
4 4 4 5 5 6 7 8 8 8 8 8 8 8 8 7 7 7 7 6 6 6 6 5 5 4 4 4 4 3 2 2 1
6 6 7 7 8 8 9 10 10 10 9 9 8 8 8 8 8 8 8 8 8 8 7 7 6 6 5 5 5 4 3 2 2
7 8 8 9 9 10 10 10 9 9 9 9 9 9 9 10 10 10 10 10 10 10 10 9 8 7 7 6 6 5 4 3 2
8 8 9 10 10 10 10 10 10 9 9 9 9 10 10 11 11 11 11 11 11 11 11 10 10 9 8 7 6 5 4 4 3